Hurricane Symbol View the latest observations near Atlantic Remnants Of Alberto.

Station RPRN6 - Rochester Coast Guard, NY Image indicating link to RSS feed of recent meteorological observations for station RPRN6


Conditions at RPRN6 as of
(6:00 pm EDT)
2200 GMT on 06/20/2024:
     

Click on the graph icon in the table below to see a time series plot of the last five days of that observation.

5-day plot - Wind Direction Wind Direction (WDIR): E ( 100 deg true )
5-day plot - Wind Speed Wind Speed (WSPD): 1.9 kts
5-day plot - Wind Gust Wind Gust (GST): 2.9 kts
5-day plot - Atmospheric Pressure Atmospheric Pressure (PRES):30.26 in
5-day plot - Pressure Tendency Pressure Tendency (PTDY):-0.04 in ( Falling )
5-day plot - Air Temperature Air Temperature (ATMP): 77.5 °F
5-day plot -  Wind Speed, Wind Gust and Atmospheric Pressure Combined plot of Wind Speed, Gust, and Air Pressure
Previous observations
TIME
(EDT)
5-day plot - Wind Direction
WDIR
 
5-day plot - Wind Speed
WSPD
kts
5-day plot - Wind Gust
GST
kts
5-day plot - Wave Height
WVHT
ft
5-day plot - Dominant Wave Period
DPD
sec
5-day plot - Average Wave Period
APD
sec
5-day plot - Mean Wave Direction
MWD
 
5-day plot - Atmospheric Pressure
PRES
in
5-day plot - Pressure Tendency
PTDY
in
5-day plot - Air Temperature
ATMP
°F
5-day plot - Water Temperature
WTMP
°F
5-day plot - Dew Point
DEWP
°F
5-day plot - Salinity
SAL
psu
5-day plot - Visibility
VIS
nmi
5-day plot - Tide (above MLLW)
TIDE
ft
2024-06-20 05:50 pmENE 2.9 2.9----30.26- 77.5-----
2024-06-20 05:40 pm E 1.9 2.9----30.26- 77.0-----
2024-06-20 05:30 pm E 1.9 2.9----30.26- 77.2-----
2024-06-20 05:20 pm E 1.9 2.9----30.26- 77.2-----
2024-06-20 05:10 pm E 1.9 2.9----30.26- 76.5-----
2024-06-20 05:00 pm NE 2.9 4.1----30.26-0.06 75.7-----
2024-06-20 04:50 pm N 1.9 4.1----30.27- 75.9-----
2024-06-20 04:40 pmNNE 2.9 4.1----30.27- 75.9-----
2024-06-20 04:30 pm NE 1.9 2.9----30.28- 75.9-----
2024-06-20 04:20 pm NE 1.9 2.9----30.28- 76.1-----
2024-06-20 04:10 pmNNE 1.9 2.9----30.28- 75.9-----
2024-06-20 04:00 pm N 1.9 2.9----30.28-0.04 75.6-----
2024-06-20 03:50 pm N 1.9 4.1----30.28- 75.4-----
2024-06-20 03:40 pm N 1.9 2.9----30.28- 75.4-----
2024-06-20 03:30 pm N 1.0 2.9----30.29- 75.4-----
2024-06-20 03:20 pmNNE 1.9 2.9----30.29- 75.0-----
2024-06-20 03:10 pmNNE 1.9 2.9----30.29- 75.6-----
2024-06-20 03:00 pm NE 1.9 2.9----30.30-0.03 75.0-----
2024-06-20 02:50 pm NE 1.0 2.9----30.30- 74.8-----
2024-06-20 02:40 pmNNE 1.9 2.9----30.30- 73.4-----
2024-06-20 02:30 pm N 1.9 5.1----30.31- 73.0-----
2024-06-20 02:20 pm N 4.1 5.1----30.31- 72.9-----
2024-06-20 02:10 pmNNW 4.1 5.1----30.31- 72.7-----
2024-06-20 02:00 pm N 4.1 4.1----30.32-0.01 72.7-----
2024-06-20 01:50 pm N 4.1 6.0----30.32- 72.9-----
2024-06-20 01:40 pm N 4.1 5.1----30.32- 73.0-----
2024-06-20 01:30 pm N 1.0 2.9----30.32- 73.2-----
2024-06-20 01:20 pmNNW 2.9 4.1----30.32- 72.9-----
2024-06-20 01:10 pmNNW 2.9 4.1----30.32- 72.7-----
2024-06-20 01:00 pm NW 1.9 2.9----30.32-0.01 73.2-----
2024-06-20 12:50 pmNNE 1.9 4.1----30.32- 72.7-----
2024-06-20 12:40 pm NE 4.1 6.0----30.32- 72.0-----
2024-06-20 12:30 pmNNE 6.0 8.0----30.33- 72.0-----
2024-06-20 12:20 pm N 6.0 7.0----30.33- 72.3-----
2024-06-20 12:10 pm N 5.1 8.0----30.33- 73.2-----
2024-06-20 12:00 pm N 6.0 7.0----30.33+0.01 74.7-----
2024-06-20 11:50 amNNE 6.0 7.0----30.33- 74.8-----
2024-06-20 11:40 amNNE 6.0 6.0----30.33- 74.8-----
2024-06-20 11:30 am NE 6.0 6.0----30.33- 75.6-----
2024-06-20 11:20 am NE 4.1 5.1----30.33- 75.4-----
2024-06-20 11:10 am NE 4.1 5.1----30.33- 75.6-----
2024-06-20 11:00 am E 2.9 2.9----30.33+0.03 75.7-----
2024-06-20 10:50 am E 2.9 2.9----30.33- 75.0-----
2024-06-20 10:40 am NE 1.9 2.9----30.33- 74.7-----
2024-06-20 10:30 amNNE 2.9 4.1----30.33- 74.7-----
2024-06-20 10:20 amENE 1.9 4.1----30.33- 74.7-----
2024-06-20 10:10 am NE 2.9 4.1----30.33- 75.9-----
2024-06-20 10:00 amENE 2.9 2.9----30.33+0.02 77.2-----
2024-06-20 09:50 am NE 1.9 1.9----30.33- 78.1-----
2024-06-20 09:40 am- 0.0 2.9----30.33- 77.4-----
2024-06-20 09:30 am NE 1.0 1.0----30.32- 76.6-----
2024-06-20 09:20 am- 0.0 2.9----30.32- 75.6-----
2024-06-20 09:10 am W 2.9 4.1----30.32- 75.6-----
2024-06-20 09:00 amWNW 2.9 4.1----30.32-0.01 75.7-----
2024-06-20 08:50 am W 4.1 6.0----30.31- 75.0-----
2024-06-20 08:40 am NW 5.1 8.9----30.31- 74.5-----
2024-06-20 08:30 amSSE 7.0 12.0----30.29- 73.9-----
2024-06-20 08:20 amSSE 7.0 11.1----30.28- 75.4-----
2024-06-20 08:10 am S 4.1 8.0----30.30- 75.4-----
2024-06-20 08:00 am S 4.1 8.0----30.30+0.00 75.0-----
2024-06-20 07:50 am SW 5.1 8.0----30.30- 74.7-----
2024-06-20 07:40 amSSE 7.0 8.0----30.29- 74.5-----
2024-06-20 07:30 am S 6.0 7.0----30.30- 75.0-----
2024-06-20 07:20 am S 5.1 6.0----30.30- 74.8-----
2024-06-20 07:10 am SW 2.9 6.0----30.31- 74.8-----
2024-06-20 07:00 amWSW 2.9 6.0----30.31+0.03 74.7-----
2024-06-20 06:50 amWSW 4.1 9.9----30.30- 74.3-----
2024-06-20 06:40 am W 7.0 13.0----30.31- 74.3-----
2024-06-20 06:30 amWNW 11.1 15.9----30.31- 74.5-----
2024-06-20 06:20 amWNW 9.9 22.0----30.32- 74.8-----
2024-06-20 06:10 amWNW 18.1 25.1----30.32- 75.4-----
2024-06-20 06:00 am W 14.0 21.0----30.33+0.06 75.9-----
2024-06-20 05:50 am W 14.0 29.9----30.32- 75.6-----
2024-06-20 05:40 amWNW 17.1 24.1----30.31- 75.7-----
2024-06-20 05:30 amWNW 14.0 21.0----30.32- 75.6-----
2024-06-20 05:20 amWNW 15.9 24.1----30.33- 75.4-----
2024-06-20 05:10 am W 8.9 11.1----30.30- 75.9-----
2024-06-20 05:00 amWSW 8.0 9.9----30.30+0.03 76.3-----
2024-06-20 04:50 am SW 8.0 13.0----30.29- 76.1-----
2024-06-20 04:40 am SW 9.9 12.0----30.29- 76.5-----
2024-06-20 04:30 am SW 9.9 11.1----30.28- 76.5-----
2024-06-20 04:20 am SW 8.0 9.9----30.28- 76.6-----
2024-06-20 04:10 am SW 8.9 11.1----30.28- 76.8-----
2024-06-20 04:00 am SW 8.0 12.0----30.28-0.01 76.6-----
2024-06-20 03:50 am SW 7.0 9.9----30.27- 76.6-----
2024-06-20 03:40 amSSW 8.9 11.1----30.27- 76.6-----
2024-06-20 03:30 am SW 8.9 13.0----30.26- 77.0-----
2024-06-20 03:20 amSSW 9.9 13.0----30.27- 77.2-----
2024-06-20 03:10 amSSW 8.0 9.9----30.26- 77.2-----
2024-06-20 03:00 am S 7.0 9.9----30.27-0.02 77.4-----
2024-06-20 02:50 am S 2.9 4.1----30.27- 77.0-----
2024-06-20 02:40 am W 1.0 7.0----30.28- 77.4-----
2024-06-20 02:30 amWSW 6.0 9.9----30.27- 77.9-----
2024-06-20 02:20 am SW 8.0 9.9----30.27- 78.1-----
2024-06-20 02:10 amSSW 6.0 8.0----30.27- 77.7-----
2024-06-20 02:00 amSSW 6.0 8.0----30.27-0.01 77.9-----
2024-06-20 01:50 amSSW 6.0 8.9----30.28- 78.1-----
2024-06-20 01:40 amSSW 8.9 11.1----30.28- 78.4-----
2024-06-20 01:30 amSSW 8.9 14.0----30.28- 79.0-----
2024-06-20 01:20 amSSW 8.9 17.1----30.29- 79.5-----
2024-06-20 01:10 amSSW 11.1 15.9----30.29- 80.1-----
2024-06-20 01:00 am S 13.0 18.1----30.29+0.02 80.1-----
2024-06-20 12:50 am S 15.9 19.0----30.30- 81.0-----
2024-06-20 12:40 am S 14.0 18.1----30.30- 81.7-----
2024-06-20 12:30 amSSW 13.0 15.9----30.29- 81.9-----
2024-06-20 12:20 amSSW 11.1 15.0----30.30- 82.0-----
2024-06-20 12:10 amSSW 8.9 12.0----30.30- 82.2-----
2024-06-20 12:00 am S 7.0 8.9----30.29+0.03 81.7-----
2024-06-19 11:50 pm SW 7.0 8.0----30.28- 80.6-----
2024-06-19 11:40 pm SW 6.0 7.0----30.28- 80.8-----
2024-06-19 11:30 pmSSW 5.1 6.0----30.28- 81.0-----
2024-06-19 11:20 pmSSW 4.1 4.1----30.28- 81.1-----
2024-06-19 11:10 pm SW 4.1 4.1----30.28- 80.2-----
2024-06-19 11:00 pm SW 2.9 4.1----30.28+0.04 80.1-----
2024-06-19 10:50 pmSSW 4.1 4.1----30.28- 80.8-----
2024-06-19 10:40 pm SW 1.9 2.9----30.28- 80.1-----
2024-06-19 10:30 pm S 2.9 4.1----30.28- 79.2-----
2024-06-19 10:20 pmSSE 4.1 4.1----30.28- 79.3-----
2024-06-19 10:10 pm S 1.9 2.9----30.27- 80.8-----
2024-06-19 10:00 pm SW 2.9 2.9----30.27+0.02 81.1-----
2024-06-19 09:50 pmWSW 1.9 1.9----30.27- 81.1-----
2024-06-19 09:40 pm- 0.0 1.9----30.27- 81.7-----
2024-06-19 09:30 pmSSW 1.0 1.9----30.27- 82.2-----
2024-06-19 09:20 pmWNW 1.0 1.9----30.26- 82.6-----
2024-06-19 09:10 pm- 0.0 1.0----30.26- 82.9-----
2024-06-19 09:00 pm- 0.0 1.0----30.26+0.02 82.9-----
2024-06-19 08:50 pm- 0.0 1.0----30.25- 82.9-----
2024-06-19 08:40 pmSSE 1.0 2.9----30.25- 83.1-----
2024-06-19 08:30 pmSSE 2.9 4.1----30.24- 83.5-----
2024-06-19 08:20 pmSSE 2.9 2.9----30.25- 83.1-----
2024-06-19 08:10 pmSSE 2.9 5.1----30.24- 83.1-----
2024-06-19 08:00 pmSSE 4.1 5.1----30.24-0.01 83.1-----
2024-06-19 07:50 pmSSE 5.1 5.1----30.25- 82.9-----
2024-06-19 07:40 pmSSE 5.1 5.1----30.24- 82.6-----
2024-06-19 07:30 pmSSE 4.1 5.1----30.24- 82.2-----
2024-06-19 07:20 pm SE 4.1 5.1----30.24- 82.0-----
2024-06-19 07:10 pmSSE 4.1 5.1----30.24- 81.3-----
2024-06-19 07:00 pmSSE 4.1 5.1----30.25-0.01 80.2-----
2024-06-19 06:50 pmSSE 2.9 4.1----30.25- 79.5-----
2024-06-19 06:40 pm SE 2.9 4.1----30.24- 79.5-----
2024-06-19 06:30 pmSSE 2.9 4.1----30.25- 79.9-----
2024-06-19 06:20 pmSSE 1.9 1.9----30.25- 80.8-----
2024-06-19 06:10 pm- 0.0 1.0----30.25- 82.9-----
2024-06-19 06:00 pm- 0.0 0.0----30.24-0.02 82.8-----
2024-06-19 05:50 pm- 0.0 0.0----30.24- 81.9-----